Flag for U.S.A. Weather past 2 weeks in Davenport, Iowa, U.S.A.

Now
45 °F

Sunny.


Feels Like: 41 °F
Forecast: 34 / 60 °F
Wind: 8 mph from East

Location: Davenport Municipal Airport


UV Index: 5 (Moderate)

Visibility: 8 mi


Pressure: 30.39 "Hg

Humidity: 68%

Dew point: 35 °F

Location of DavenportLocation

Historic Weather in Davenport

°F

Davenport temperature yesterday

Maximum temperature yesterday: 55 °F (at 3:52 PM)
Minimum temperature yesterday: 36 °F (at 11:52 PM)
Average temperature yesterday: 46 °F

Past Weeks' High & Low Weather Summary

 TemperatureHumidityPressure
High81 °F (Apr 12, 4:52 PM)100% (Apr 4, 4:57 AM)30.39 "Hg (Apr 4, 4:57 AM)
Low25 °F (Apr 15, 5:52 AM)15% (Apr 10, 3:52 PM)29.45 "Hg (Apr 13, 5:52 PM)
Average47 °F61%29.94 "Hg
* Reported Apr 3 8:52 AM — Apr 18 8:52 AM, Davenport, Weather by CustomWeather, © 2014

Note: Actual official high and low records may vary slightly from our data, if they occured in-between our weather recording intervals... More about our weather records

Advertising

Historic Weather Conditions — Data for Previous 24 hours

 ConditionsComfort  
Time TempWeatherWind HumidityBarometerVisibility
8:52 AM
Apr 18
41 °FSunny.8 mph76%30.39 "Hg6 mi
7:52 AM36 °FFog.6 mph85%30.38 "Hg4 mi
6:52 AM30 °FIce fog.5 mph92%30.37 "Hg2 mi
5:52 AM29 °FIce fog.6 mph89%30.34 "Hg4 mi
4:52 AM31 °FIce fog.5 mph89%30.33 "Hg5 mi
3:52 AM30 °FIce fog.6 mph92%30.32 "Hg5 mi
2:52 AM33 °FFog.8 mph88%30.32 "Hg6 mi
1:52 AM34 °FClear.9 mph88%30.32 "Hg8 mi
12:52 AM36 °FClear.9 mph82%30.32 "Hg9 mi
11:52 PM
Apr 17
36 °FClear.8 mph82%30.32 "Hg6 mi
10:52 PM40 °FClear.7 mph77%30.31 "Hg10 mi
9:52 PM43 °FClear.7 mph71%30.30 "Hg10 mi
8:52 PM45 °FClear.8 mph65%30.29 "Hg10 mi
7:52 PM50 °FSunny.7 mph57%30.28 "Hg10 mi
6:52 PM53 °FSunny.9 mph48%30.27 "Hg10 mi
5:52 PM55 °FSunny.8 mph47%30.25 "Hg10 mi
4:52 PM53 °FSunny.8 mph48%30.24 "Hg10 mi
3:52 PM55 °FSunny.12 mph47%30.24 "Hg10 mi
2:52 PM53 °FSunny.12 mph51%30.24 "Hg10 mi
1:52 PM51 °FSunny.13 mph54%30.24 "Hg10 mi
12:52 PM50 °FPartly sunny.12 mph57%30.24 "Hg10 mi
11:52 AM47 °FPartly sunny.13 mph61%30.25 "Hg10 mi
10:52 AM44 °FOvercast.17 mph65%30.24 "Hg10 mi
10:02 AM43 °FPartly sunny.16 mph71%30.21 "Hg10 mi
Weather by CustomWeather, © 2014

See weather overview